|
NORAD ID: 16139 Int'l Code: 1985-094B
Perigee: 1,419.6 km
Apogee: 1,421.2 km
Inclination: 82.6 °
Period: 114.1 minutes
Semi major axis: 7791 km
Launch date: October 9, 1985
Source: Commonwealth of Independent States (former USSR) (CIS)
Two Line Element Set (TLE):
1 16139U 85094B 13140.53213082 -.00000010 00000-0 -11617-3 0 8293
2 16139 082.6125 084.0695 0001027 150.9807 336.1458 12.62357762272695
Source:
NASA's NSSDC Master Catalog entry for COSMOS 1691
|